Regional Weather Roundup
Issued by NWS

Home | Current Version | Previous Version | Graphics & Text | Print | Product List | Glossary On
Versions: 1 2 3 4 5 6 7 8 9 10 11 12 13 14 15 16 17 18 19 20 21 22 23 24 25 26 27 28 29 30 31 32 33 34 35 36 37 38 39 40 41 42 43 44 45 46 47 48 49 50
000
ASUS43 KIND 311409
RWRIN

WEATHER ROUNDUP FOR INDIANA
NATIONAL WEATHER SERVICE INDIANAPOLIS IN
1000 AM EDT MON AUG 31 2015

NOTE: "FAIR" INDICATES FEW OR NO CLOUDS BELOW 12,000 FEET WITH NO
SIGNIFICANT WEATHER AND/OR OBSTRUCTIONS TO VISIBILITY.

* - STATION DOES NOT REPORT WEATHER SUCH AS PRECIPITATION OR FOG.

+ - STATION NOT QUALITY CONTROLLED BY THE NATIONAL WEATHER SERVICE.
    USE DATA WITH CAUTION...ESPECIALLY DEWPOINT AND RELATIVE
    HUMIDITY OBSERVATIONS.

INZ001>003-010>013-019-020-311500-
NORTHWEST INDIANA

CITY           SKY/WX    TMP DP  RH WIND       PRES   REMARKS
GARY /AIRPORT/ MOSUNNY   73  68  83 CALM      30.09R HAZE
KNOX *+        CLOUDY    66  66 100 SW3       30.10R VSB 1/4
LA PORTE +     FOG      N/A N/A N/A S3        30.11R VSB<1/4
MICHIGAN CITY+ SUNNY     70  70 100 CALM      30.09S FOG
MONTICELLO +   SUNNY     72  72  98 CALM      30.09R
RENSSELAER +   SUNNY     68  68 100 CALM      30.09S
VALPARAISO     FOG       68  67  96 MISG      30.10R VSB<1/4

$$

LMZ046-743>745-311500-
SOUTHERN LAKE MICHIGAN

STATION/POSITION TIME  TEMP    WIND        PRES    WAVE
                       AIR SEA DIR/SP/G            HT
                 (UTC) (F)     (DEG/KT/KT) (MB)    (FT)
BURNS HARBOR     1300   68     270/  2/  5 1019.0
MICHIGAN CITY    1300   67     180/  3/  3   N/A
5NW MICH CITY    1300   70 71  270/  2/  4   N/A     0

$$

INZ004-005-014>016-021>024-311500-
NORTH CENTRAL INDIANA

CITY           SKY/WX    TMP DP  RH WIND       PRES   REMARKS
ELKHART        FOG       66  66 100 CALM      30.10R VSB 1/4
GOSHEN         PTSUNNY   70  69  97 SW5       30.10S FOG
LOGANSPORT +   SUNNY     73  66  78 SW5       30.11S
PERU/GRISSOM   SUNNY     75  70  85 W7        30.10R
ROCHESTER +    MOSUNNY   77  72  83 W5        30.11R
SOUTH BEND     FOG       68  67  96 SW5       30.10S VSB 1/2
WARSAW +       PTSUNNY   70  68  94 W5        30.11R FOG

$$

INZ006>009-017-018-025>027-311500-
NORTHEAST INDIANA

CITY           SKY/WX    TMP DP  RH WIND       PRES   REMARKS
ANGOLA *+      PTSUNNY   72  64  78 S3        30.10S
AUBURN +       SUNNY     70  68  94 SW3       30.11R FOG
FORT WAYNE     SUNNY     73  68  84 W6        30.11S
HUNTINGTON +   SUNNY     73  66  78 SW3       30.10S

$$

INZ028-029-035-036-043>045-051>053-311500-
WEST CENTRAL INDIANA

CITY           SKY/WX    TMP DP  RH WIND       PRES   REMARKS
CRAWFORDSVL +  SUNNY     72  67  86 CALM      30.12R
GREENCASTLE +  PTSUNNY   70  64  83 CALM      30.13R
LAFAYETTE      SUNNY     74  69  85 S3        30.10R
TERRE HAUTE    MOSUNNY   74  68  81 S8        30.12R

$$

INZ030>032-037>040-046>048-054>057-064-065-311500-
CENTRAL INDIANA

CITY           SKY/WX    TMP DP  RH WIND       PRES   REMARKS
ANDERSON       MOSUNNY   73  66  78 CALM      30.14R
COLUMBUS       MOSUNNY   73  66  78 S5        30.14S
FISHERS *+     SUNNY     73  72  94 SW6       30.12
FRANKFORT +    MOSUNNY   76  76 100 SW3       30.13R
GREENWOOD *+   SUNNY     73  66  78 SW3       30.14R
INDIANAPOLIS   SUNNY     74  68  81 SW5       30.11S
-EAGLE CREEK   SUNNY     74  69  85 CALM      30.12R
KOKOMO *+      SUNNY     77  68  73 W9        30.11S
MARION +       SUNNY     73  64  72 W5        30.12S
MT COMFORT *+  SUNNY     73  73 100 SW5       30.13R
SHELBYVILLE    MOSUNNY   74  68  81 SW5       30.13R
ZIONSVILLE +   SUNNY     75  69  79 SW3       30.13R

$$

INZ033-034-041-042-049-050-058-059-311500-
EAST CENTRAL INDIANA

CITY           SKY/WX    TMP DP  RH WIND       PRES   REMARKS
MUNCIE         SUNNY     73  69  87 W6        30.12S

$$

INZ060-061-067>069-081>083-085>088-311500-
SOUTHWEST INDIANA

CITY           SKY/WX    TMP DP  RH WIND       PRES   REMARKS
EVANSVILLE     SUNNY     76  68  76 SW6       30.14R
HUNTINGBURG *+ SUNNY     73  68  83 S6        30.15R
WASHINGTON +   SUNNY     75  67  76 CALM      30.13R

$$

INZ062-063-066-070>080-084-089>092-311500-
SOUTH CENTRAL AND SOUTHEAST INDIANA

CITY           SKY/WX    TMP DP  RH WIND       PRES   REMARKS
BLOOMINGTON    MOSUNNY   75  68  78 SW6       30.14R
MADISON *+     MOSUNNY   73  68  83 SW3       30.17R
NORTH VERNON + SUNNY     73  73 100 CALM      30.15R
SEYMOUR +      SUNNY     77  70  78 CALM      30.14R

$$



USA.gov is the U.S. government's official web portal to all federal, state and local government web resources and services.